Probability
0 0 0 0 0 0 0 0 0 0 0 0 0 0 0 0 0 0 0 0 0 0 0 1 2 2 2 2 1 0 1 1 1 0 1 2 3 3
0 0 0 0 0 0 0 0 0 0 0 0 0 0 0 0 0 0 0 0 0 0 0 0 1 1 1 1 0 0 0 0 0 0 1 1 2 2
0 0 0 0 0 0 0 0 0 0 0 0 0 0 0 0 0 0 0 0 0 0 0 0 1 0 0 0 0 0 0 0 0 0 0 0 1 2
0 0 0 0 0 0 0 0 0 0 0 0 0 0 0 0 0 0 0 0 0 0 0 0 0 0 0 0 0 0 0 0 0 0 0 0 0 1
0 0 0 0 0 0 0 0 0 0 0 0 0 0 0 0 0 0 0 0 0 0 0 0 0 0 0 0 0 0 0 0 0 0 0 0 0 0
0 0 0 0 0 0 0 0 0 0 0 0 0 0 0 0 0 0 0 0 0 0 0 0 0 0 0 0 0 0 0 0 0 0 0 0 0 0
0 0 0 0 0 0 0 0 0 0 0 0 0 0 0 0 0 0 0 0 0 0 0 0 0 0 0 0 0 0 0 0 0 0 0 0 0 0
0 0 0 0 0 0 0 0 0 0 0 0 0 0 0 0 0 0 0 0 0 0 0 0 0 0 0 0 0 0 0 0 0 0 0 0 0 0
0 0 0 0 0 0 0 0 0 0 0 0 0 0 0 0 0 0 0 0 0 0 0 0 0 0 0 0 0 0 0 0 0 0 0 0 0 0
0 0 0 0 0 0 0 0 0 0 0 0 0 0 0 0 0 0 0 0 0 0 0 0 0 0 0 0 0 0 0 0 0 0 0 0 0 0
0 0 0 0 0 0 0 0 0 0 0 0 0 0 0 0 0 0 0 0 0 0 0 0 0 0 0 0 0 0 0 0 0 0 0 0 0 0
0 0 0 0 0 0 0 0 0 0 0 0 0 0 0 0 0 0 0 0 0 0 0 0 0 0 0 0 0 0 0 0 0 0 0 0 0 0
0 0 0 0 0 0 0 0 0 0 0 0 0 0 0 0 0 0 0 0 0 0 0 0 0 0 0 0 0 0 0 0 0 0 0 0 0 0
0 0 0 0 0 0 0 0 0 0 0 0 0 0 0 0 0 0 0 0 0 0 0 0 0 0 0 0 0 0 0 0 0 0 0 0 0 0
0 0 0 0 0 0 0 0 0 0 0 0 0 0 0 0 0 0 0 0 0 0 0 0 0 0 0 0 0 0 0 0 0 0 0 0 0 0
0 0 0 0 0 0 0 0 0 0 0 0 0 0 0 0 0 0 0 0 0 0 0 0 0 0 0 0 0 0 0 0 0 0 0 0 0 0
0 0 0 0 0 0 0 0 0 0 0 0 0 0 0 0 0 0 0 0 0 0 0 0 0 0 0 0 0 0 0 0 0 0 0 0 0 0
0 0 0 0 0 0 0 0 0 0 0 0 0 0 0 0 0 0 0 0 0 0 0 0 0 0 0 0 0 0 0 0 0 0 0 0 0 0
0 0 0 0 0 0 0 0 0 0 0 0 0 0 0 0 0 0 0 0 0 0 0 0 0 0 0 0 0 0 0 0 0 0 0 0 0 0
0 0 0 0 0 0 0 0 0 0 0 0 0 0 0 0 0 0 0 0 0 0 0 0 0 0 0 0 0 0 0 0 0 0 0 0 0 0
0 0 0 0 0 0 0 0 0 0 0 0 0 0 0 0 0 0 0 0 0 0 0 0 0 0 0 0 0 0 0 0 0 0 0 0 0 0
0 0 0 0 0 0 0 0 0 0 0 0 0 0 0 0 0 0 0 0 0 0 0 0 0 0 0 0 0 0 0 0 0 0 0 0 0 0
0 0 0 0 0 0 0 0 0 0 0 0 0 0 0 0 0 0 0 0 0 0 0 0 0 0 0 0 0 0 0 0 0 0 0 0 0 0
Wind_Speed
1 1 1 0 0 0 1 2 3 1 1 2 2 2 1 0 1 1 1 5 6 7 8 8 9 9 9 10 11 12 12 13 13 14 15 16 16 16
0 1 0 0 0 0 1 1 2 2 1 2 1 2 1 1 0 0 1 3 5 6 7 8 8 9 9 10 10 10 11 11 12 13 14 15 15 15
0 1 0 0 0 0 1 1 1 2 1 2 1 1 1 1 1 1 1 2 3 6 7 8 8 9 9 9 9 10 10 11 11 12 12 14 15 15
1 0 1 0 1 0 1 1 0 1 2 1 1 1 1 1 1 1 1 1 2 4 6 7 8 8 8 9 9 9 10 10 10 11 11 13 14 15
2 1 1 1 1 1 1 1 0 0 1 1 1 1 1 1 1 1 2 1 2 2 4 5 6 7 8 9 9 10 10 10 10 11 11 12 12 13
2 2 2 2 3 2 1 1 1 1 1 0 1 1 1 2 1 1 2 2 2 2 2 2 3 5 6 7 8 9 10 10 11 11 11 12 12 12
1 1 2 3 4 3 2 2 2 1 1 0 0 1 1 1 1 1 1 2 2 1 1 1 1 2 3 5 7 8 9 9 10 10 11 12 12 12
1 1 1 1 2 2 3 4 4 3 2 1 1 0 1 1 1 1 0 1 2 2 0 2 1 2 3 3 6 8 8 9 9 9 10 11 12 12
1 0 0 0 1 1 1 2 1 1 2 3 2 2 2 2 1 1 1 2 3 2 0 2 1 2 3 4 6 7 7 8 8 9 10 10 11 11
1 1 1 0 0 2 2 2 1 1 0 1 2 2 1 1 2 2 2 2 2 2 0 1 2 2 3 3 5 5 5 6 6 7 8 9 10 11
0 0 1 1 1 3 3 2 1 2 2 2 2 2 3 2 1 1 1 1 2 2 1 1 2 2 2 2 3 4 4 5 5 6 7 8 9 9
1 1 2 3 2 4 3 3 2 0 2 3 4 5 4 5 5 2 1 0 1 2 2 1 1 2 3 2 2 2 2 4 5 6 7 7 7 4
1 1 1 3 4 4 4 2 2 2 1 2 2 3 3 3 4 3 1 0 0 1 2 1 1 1 1 3 3 2 2 2 3 3 5 6 6 5
2 1 0 3 4 4 3 3 4 4 2 2 2 2 2 2 3 3 3 2 1 1 2 1 0 1 1 2 3 3 2 2 2 3 3 4 5 7
2 3 2 3 4 3 4 5 4 3 2 2 2 1 1 1 2 2 3 3 3 3 3 2 1 1 1 2 3 3 3 3 2 2 3 3 3 3
2 3 5 6 4 3 4 3 2 2 2 2 1 1 1 2 2 2 2 3 3 3 4 4 3 2 2 2 2 4 3 3 3 3 3 3 3 3
4 2 2 2 2 2 2 2 2 2 2 1 1 1 2 2 2 2 2 2 2 3 4 4 4 3 3 2 3 3 3 3 3 3 4 4 4 4
6 3 2 2 2 2 2 2 2 2 1 1 1 1 1 1 2 2 2 2 2 2 3 3 4 4 4 3 2 2 2 3 4 4 4 5 6 4
4 4 3 3 3 2 2 2 1 1 1 1 1 1 1 1 1 1 2 2 2 2 3 3 3 3 4 5 5 2 3 4 4 4 4 4 6 6
3 4 4 4 3 3 3 2 2 1 1 1 1 1 1 1 1 1 1 2 2 2 3 3 2 2 3 5 6 5 5 5 4 5 5 5 6 8
4 4 4 4 3 3 3 2 2 2 2 1 1 1 0 0 1 1 2 3 3 2 3 4 4 7 4 3 5 5 4 6 7 6 6 6 7 6
5 4 4 4 4 4 3 3 2 2 2 1 1 0 0 0 1 2 2 2 3 3 4 4 5 4 3 4 7 8 8 6 7 11 11 10 6 6
5 5 4 4 4 4 3 3 3 2 2 2 1 1 0 1 1 2 2 3 3 4 5 5 5 4 4 5 7 8 10 9 7 6 6 10 14 17
Wind_Direction
160 134 118 279 51 138 148 154 148 134 313 308 324 325 340 357 240 208 217 221 217 220 222 222 220 221 223 228 230 230 229 229 228 223 220 222 224 224
169 112 84 280 7 52 113 127 146 158 214 286 286 295 315 332 35 341 264 239 225 225 228 227 224 224 225 228 230 232 230 232 232 229 226 226 228 226
288 150 212 198 92 45 79 91 113 145 189 288 296 315 343 354 343 323 280 243 237 233 234 232 229 229 231 232 230 229 228 231 235 233 231 232 233 231
236 180 247 160 132 110 106 109 147 172 172 251 310 326 317 299 303 297 297 260 241 242 238 239 239 235 235 236 235 232 229 230 233 234 232 234 237 236
215 211 230 166 182 175 143 137 138 88 147 172 289 306 308 322 341 317 315 318 278 262 241 240 245 244 242 240 239 238 237 235 234 235 235 237 238 240
224 220 217 194 195 192 178 173 148 92 86 110 291 319 315 316 1 332 328 326 311 313 285 254 257 255 252 250 245 240 238 237 236 236 237 237 238 240
266 240 226 204 194 183 167 170 154 135 108 111 324 348 331 345 324 301 293 308 297 300 308 284 269 261 256 254 250 244 240 239 238 238 239 239 239 239
238 282 271 216 195 172 154 149 153 157 168 165 182 231 284 277 270 281 291 351 309 302 316 282 250 263 265 249 249 247 245 242 240 240 241 241 241 241
193 220 266 81 157 133 134 111 91 122 160 166 175 226 246 246 226 259 232 222 242 269 289 275 269 264 265 268 263 252 249 249 248 246 245 243 243 244
175 182 169 224 139 140 123 96 56 20 336 172 183 227 240 239 215 222 237 261 279 292 239 268 282 269 276 271 273 269 261 256 259 262 258 253 251 250
27 124 158 166 159 129 123 115 65 0 19 60 82 43 18 14 57 72 33 35 322 310 346 270 291 296 287 278 284 291 284 278 276 272 268 263 258 254
55 51 94 112 113 122 132 136 126 334 21 30 32 24 22 22 35 61 115 117 282 302 325 339 311 336 313 297 304 318 310 299 293 284 279 274 267 254
124 68 50 81 93 106 125 139 148 134 84 69 54 36 27 22 18 18 19 107 187 275 313 345 313 313 275 296 306 303 311 315 307 291 284 283 272 249
154 170 150 91 88 91 97 103 98 91 83 78 68 47 28 8 358 360 1 8 7 277 319 346 282 269 280 286 290 306 310 309 307 299 300 301 283 270
161 163 137 96 83 77 80 83 81 85 90 85 76 40 352 339 354 357 360 8 7 7 6 3 341 292 256 263 282 292 305 307 305 303 306 300 289 289
115 110 97 86 78 76 69 62 65 90 104 105 98 30 2 12 18 10 2 0 7 347 347 354 350 334 296 278 273 285 286 288 308 307 300 294 286 272
131 98 82 78 74 62 62 64 64 70 74 73 73 47 26 20 7 1 10 15 15 338 334 337 336 322 286 268 291 293 296 297 296 301 303 296 280 270
134 132 138 136 134 129 115 90 72 77 86 92 84 74 48 25 5 360 11 17 356 335 329 327 338 345 343 322 272 293 311 308 307 302 293 291 291 284
135 151 157 160 156 148 141 136 132 119 108 101 94 80 62 34 22 4 358 355 339 325 319 325 342 352 339 319 304 300 308 305 308 304 292 281 282 286
152 161 165 164 159 154 153 149 141 123 103 99 91 66 56 49 21 355 345 333 321 319 321 324 323 313 289 286 289 294 293 288 297 298 294 288 279 278
167 166 165 163 161 159 157 154 148 142 130 115 92 71 50 42 352 326 320 323 323 316 314 305 289 297 285 289 291 290 284 275 278 283 291 297 298 294
170 169 168 166 163 161 159 154 146 144 139 129 135 141 88 47 301 308 307 306 301 295 294 294 299 307 302 292 291 292 295 294 283 283 280 275 280 286
172 169 167 166 164 159 157 158 157 162 164 162 167 197 230 275 281 284 290 292 294 299 302 305 307 302 293 287 289 291 295 299 298 295 284 276 275 275